Date String (YYYY-MM-DD hh:mm:ss) UTC,Instrument flags,absolute air pressure of the measurement (hPa),sample flow rate (lpm),inlet stack bypass flow (lpm),air temperature of the measurement (°C),ambient temperature measured by the external sensor (°C),aerosol sample conditioner tube jacket temperature (°C),OPC LED temperature (°C),internal box temperature (°C),relative humidity of the measurement (%),span deviation,mass concentration of particles derived from Lorenz-Mie calculation of OPC scattering (μg/m³),mass concentration of particles derived from Lorenz-Mie calculation of OPC scattering (μg/m³),mass concentration of particles derived from Lorenz-Mie calculation of OPC scattering (μg/m³)
DateTimeUTC,F1_M11,P_M11,Q1_M11,Q2_M11,T1_M11,T2_M11,T3_M11,T4_M11,T5_M11,U1_M11,ZSPAN_M11,X0_M11,X2_M11,X1_M11
2023-11-25 16:00:00,SystemResetWarning,0829.1,5.01,000.00,019.0,018.2,000.0,027.4,020.1,11.7,0000.0,0006.48,0004.46,0004.16
2023-11-25 16:01:00,SystemResetWarning,0829.1,5.00,000.00,019.0,018.1,000.0,027.4,020.1,11.7,0000.0,0006.42,0004.43,0004.15
2023-11-25 16:02:00,SystemResetWarning,0829.1,5.00,000.00,019.0,018.1,000.0,027.4,020.1,11.8,0000.0,0006.39,0004.41,0004.13
2023-11-25 16:03:00,SystemResetWarning,0829.1,4.99,000.00,019.0,018.1,000.0,027.3,020.0,11.8,0000.0,0006.67,0004.40,0004.12
2023-11-25 16:04:00,SystemResetWarning,0829.1,4.99,000.00,019.0,018.1,000.0,027.3,020.0,11.8,0000.0,0006.72,0004.41,0004.12
2023-11-25 16:05:00,SystemResetWarning,0829.1,5.00,000.00,019.0,018.1,000.0,027.3,020.0,11.9,0000.0,0006.66,0004.39,0004.11
2023-11-25 16:06:00,SystemResetWarning,0829.1,5.01,000.00,019.0,018.1,000.0,027.3,020.1,11.9,0000.0,0006.61,0004.38,0004.10
2023-11-25 16:07:00,SystemResetWarning,0829.1,5.00,000.00,019.0,018.5,000.0,027.3,020.7,11.9,0000.0,0006.63,0004.38,0004.10
2023-11-25 16:08:00,SystemResetWarning,0829.2,5.00,000.00,019.2,019.2,000.0,027.4,021.1,11.9,0000.0,0006.77,0004.41,0004.10
2023-11-25 16:09:00,SystemResetWarning,0829.2,5.00,000.00,019.3,019.4,000.0,027.4,021.0,11.9,0000.0,0006.87,0004.44,0004.11
2023-11-25 16:10:00,SystemResetWarning,0829.2,5.00,000.00,019.3,019.3,000.0,027.4,020.9,11.9,0000.0,0006.83,0004.44,0004.12
2023-11-25 16:11:00,SystemResetWarning,0829.2,4.99,000.00,019.3,019.2,000.0,027.4,020.8,11.9,0000.0,0006.86,0004.45,0004.12
2023-11-25 16:12:00,SystemResetWarning,0829.2,4.99,000.00,019.3,019.1,000.0,027.4,020.7,11.9,0000.0,0007.01,0004.47,0004.12
2023-11-25 16:13:00,SystemResetWarning,0829.2,5.00,000.00,019.3,019.0,000.0,027.5,020.6,11.9,0000.0,0007.11,0004.49,0004.13
2023-11-25 16:14:00,SystemResetWarning,0829.2,5.01,000.00,019.3,018.9,000.0,027.5,020.5,11.9,0000.0,0007.08,0004.48,0004.13
2023-11-25 16:15:00,SystemResetWarning,0829.3,5.00,000.00,019.3,018.8,000.0,027.5,020.5,11.9,0000.0,0007.46,0004.48,0004.14
2023-11-25 16:16:00,SystemResetWarning,0829.3,5.00,000.00,019.3,018.7,000.0,027.5,020.4,11.9,0000.0,0007.48,0004.49,0004.15
2023-11-25 16:17:00,SystemResetWarning,0829.3,5.00,000.00,019.3,018.6,000.0,027.5,020.4,12.0,0000.0,0007.53,0004.52,0004.17
2023-11-25 16:18:00,SystemResetWarning,0829.3,5.00,000.00,019.2,018.5,000.0,027.5,020.3,12.1,0000.0,0007.55,0004.55,0004.19
2023-11-25 16:19:00,SystemResetWarning,0829.3,5.00,000.00,019.2,018.5,000.0,027.5,020.3,12.1,0000.0,0007.51,0004.53,0004.19
2023-11-25 16:20:00,SystemResetWarning,0829.3,5.00,000.00,019.2,018.4,000.0,027.5,020.3,12.2,0000.0,0007.51,0004.52,0004.19
2023-11-25 16:21:00,SystemResetWarning,0829.3,5.01,000.00,019.2,018.4,000.0,027.5,020.3,12.2,0000.0,0007.55,0004.53,0004.19
2023-11-25 16:22:00,SystemResetWarning,0829.3,5.01,000.00,019.2,018.4,000.0,027.5,020.3,12.3,0000.0,0007.61,0004.56,0004.19
2023-11-25 16:23:00,SystemResetWarning,0829.3,5.00,000.00,019.2,018.3,000.0,027.5,020.3,12.3,0000.0,0007.50,0004.51,0004.18
2023-11-25 16:24:00,SystemResetWarning,0829.3,5.00,000.00,019.1,018.3,000.0,027.4,020.3,12.4,0000.0,0007.53,0004.52,0004.18
2023-11-25 16:25:00,SystemResetWarning,0829.3,5.00,000.00,019.1,018.3,000.0,027.4,020.2,12.4,0000.0,0007.42,0004.52,0004.18
2023-11-25 16:26:00,SystemResetWarning,0829.3,5.00,000.00,019.1,018.3,000.0,027.4,020.2,12.5,0000.0,0006.87,0004.53,0004.18
2023-11-25 16:27:00,SystemResetWarning,0829.3,4.99,000.00,019.1,018.2,000.0,027.4,020.2,12.5,0000.0,0007.02,0004.55,0004.19
2023-11-25 16:28:00,SystemResetWarning,0829.3,5.00,000.00,019.1,018.2,000.0,027.4,020.2,12.5,0000.0,0007.19,0004.56,0004.21
2023-11-25 16:29:00,SystemResetWarning,0829.3,5.00,000.00,019.1,018.2,000.0,027.4,020.2,12.5,0000.0,0007.22,0004.57,0004.21
2023-11-25 16:30:00,SystemResetWarning,0829.3,5.00,000.00,019.1,018.2,000.0,027.4,020.1,12.5,0000.0,0007.24,0004.59,0004.22
2023-11-25 16:31:00,SystemResetWarning,0829.3,4.99,000.00,019.0,018.1,000.0,027.4,020.1,12.6,0000.0,0007.35,0004.62,0004.25
2023-11-25 16:32:00,SystemResetWarning,0829.4,5.00,000.00,019.0,018.1,000.0,027.4,020.1,12.6,0000.0,0007.43,0004.66,0004.25
2023-11-25 16:33:00,SystemResetWarning,0829.4,5.00,000.00,019.0,018.1,000.0,027.4,020.0,12.6,0000.0,0007.45,0004.67,0004.28
2023-11-25 16:34:00,SystemResetWarning,0829.4,5.01,000.00,019.0,018.1,000.0,027.4,020.0,12.7,0000.0,0007.53,0004.70,0004.31
2023-11-25 16:35:00,SystemResetWarning,0829.3,5.00,000.00,019.0,018.1,000.0,027.4,020.0,12.8,0000.0,0007.70,0004.71,0004.33
2023-11-25 16:36:00,SystemResetWarning,0829.4,4.99,000.00,019.0,018.0,000.0,027.3,020.0,12.8,0000.0,0007.66,0004.71,0004.35
2023-11-25 16:37:00,SystemResetWarning,0829.4,5.00,000.00,018.9,018.0,000.0,027.3,020.0,12.8,0000.0,0007.68,0004.75,0004.38
2023-11-25 16:38:00,SystemResetWarning,0829.4,5.00,000.00,018.9,018.0,000.0,027.3,020.0,12.8,0000.0,0007.66,0004.76,0004.40
2023-11-25 16:39:00,SystemResetWarning,0829.4,5.00,000.00,018.9,018.0,000.0,027.3,020.0,12.9,0000.0,0007.52,0004.74,0004.41
2023-11-25 16:40:00,SystemResetWarning,0829.3,5.01,000.00,018.9,018.0,000.0,027.3,020.0,12.9,0000.0,0007.49,0004.74,0004.40
2023-11-25 16:41:00,SystemResetWarning,0829.4,5.00,000.00,018.9,018.0,000.0,027.3,020.0,12.8,0000.0,0007.52,0004.75,0004.41
2023-11-25 16:42:00,SystemResetWarning,0829.3,5.00,000.00,018.9,018.0,000.0,027.3,020.0,12.8,0000.0,0007.42,0004.74,0004.42
2023-11-25 16:43:00,SystemResetWarning,0829.3,5.00,000.00,018.9,018.0,000.0,027.3,020.0,12.9,0000.0,0007.40,0004.74,0004.44
2023-11-25 16:44:00,SystemResetWarning,0829.3,5.00,000.00,018.9,018.0,000.0,027.3,020.0,12.9,0000.0,0007.35,0004.73,0004.44
2023-11-25 16:45:00,SystemResetWarning,0829.3,5.00,000.00,018.9,018.0,000.0,027.3,020.0,12.9,0000.0,0007.44,0004.75,0004.44
2023-11-25 16:46:00,SystemResetWarning,0829.3,5.00,000.00,018.9,017.9,000.0,027.3,020.0,12.8,0000.0,0007.44,0004.75,0004.44
2023-11-25 16:47:00,SystemResetWarning,0829.4,5.01,000.00,018.9,017.9,000.0,027.3,020.0,12.7,0000.0,0007.52,0004.78,0004.45
2023-11-25 16:48:00,SystemResetWarning,0829.3,5.00,000.00,018.9,017.9,000.0,027.3,020.0,12.6,0000.0,0007.59,0004.80,0004.46
2023-11-25 16:49:00,SystemResetWarning,0829.3,5.00,000.00,018.9,017.9,000.0,027.3,020.0,12.5,0000.0,0007.53,0004.78,0004.46
2023-11-25 16:50:00,SystemResetWarning,0829.4,5.00,000.00,018.9,018.0,000.0,027.3,020.2,12.4,0000.0,0007.57,0004.80,0004.48
2023-11-25 16:51:00,SystemResetWarning,0829.4,5.01,000.00,019.0,018.6,000.0,027.3,020.7,12.3,0000.0,0007.65,0004.83,0004.48
2023-11-25 16:52:00,SystemResetWarning,0829.4,5.01,000.00,019.1,018.9,000.0,027.3,020.8,12.1,0000.0,0007.68,0004.85,0004.50
2023-11-25 16:53:00,SystemResetWarning,0829.4,4.98,000.00,019.1,018.8,000.0,027.3,020.6,12.0,0000.0,0007.74,0004.88,0004.50
2023-11-25 16:54:00,SystemResetWarning,0829.4,4.99,000.00,019.1,018.7,000.0,027.3,020.4,12.0,0000.0,0007.76,0004.89,0004.50
2023-11-25 16:55:00,SystemResetWarning,0829.4,5.00,000.00,019.1,018.6,000.0,027.3,020.4,12.0,0000.0,0007.78,0004.89,0004.51
2023-11-25 16:56:00,SystemResetWarning,0829.4,5.00,000.00,019.1,018.5,000.0,027.3,020.3,12.0,0000.0,0007.79,0004.88,0004.51
2023-11-25 16:57:00,SystemResetWarning,0829.4,5.01,000.00,019.1,018.4,000.0,027.3,020.2,12.0,0000.0,0007.59,0004.90,0004.51
2023-11-25 16:58:00,SystemResetWarning,0829.4,5.00,000.00,019.0,018.4,000.0,027.3,020.2,12.1,0000.0,0007.47,0004.87,0004.51
2023-11-25 16:59:00,SystemResetWarning,0829.4,4.99,000.00,019.0,018.3,000.0,027.3,020.1,12.1,0000.0,0007.69,0004.85,0004.51
